Weather Roundup
Issued by NWS

Home | Current Version | Previous Version | Graphics & Text | Print | Product List | Glossary Off
Versions: 1 2 3 4 5 6 7 8 9 10 11 12 13 14 15 16 17 18 19 20 21 22 23 24 25 26 27 28 29 30 31 32 33 34 35 36 37 38 39 40 41 42 43 44 45 46 47 48 49 50

000
NZUS93 KARX 300859
HRRWXR

CURRENT HOURLY OBSERVATIONS ACROSS
MUCH OF THE UPPER MISSISSIPPI VALLEY
NATIONAL WEATHER SERVICE LA CROSSE WI
400 AM CDT MON MAR 30 2015


...SOUTHEAST MINNESOTA...


CITY           SKY/WX    TMP DP  RH WIND       PRES   REMARKS
ROCHESTER      PTCLDY    35  28  75 W12       29.98S WCI  27
ROCHESTER/MAYO PTSUNNY   40  29  64 W5        29.97F
WINONA         CLOUDY    36  30  80 CALM      29.97F
AUSTIN         CLEAR     34  27  75 SW5       29.99S WCI  30
ALBERT LEA     PTCLDY    39  28  65 SW8       29.99F WCI  34
DODGE CENTER   PTCLDY    34  28  80 SW9       29.97F WCI  26
PRESTON        PTCLDY    36  28  71 W13       29.99S WCI  28
OWATONNA       CLEAR     36  27  69 SW7       29.98F WCI  30
FARIBAULT      PTCLDY    34  28  80 S5        29.98S WCI  30
$$

...ELSEWHERE IN MINNESOTA...


CITY           SKY/WX    TMP DP  RH WIND       PRES   REMARKS
MINNEAPOLIS    CLOUDY    40  28  62 SW8       29.95F WCI  34
INTNL FALLS    CLEAR     30  23  75 W3        29.83R
DULUTH         CLEAR     36  25  64 NW13      29.84R WCI  27
RED WING       MOCLDY    34  28  80 CALM      29.95S
REDWOOD FALLS  CLEAR     39  25  57 SW13      29.95F WCI  31
MANKATO        CLEAR     37  25  60 W9        29.98F WCI  31
WORTHINGTON    PTCLDY    37  19  48 SW10      30.03F WCI  30
FAIRMONT       CLEAR     37  23  56 SW13      30.00F WCI  29
$$

...SOUTHWEST WISCONSIN...


CITY           SKY/WX    TMP DP  RH WIND       PRES   REMARKS
LA CROSSE      PTCLDY    31  26  82 CALM      29.97S
PRAIRIE DU CHI CLEAR     37  28  69 CALM      30.00S
BOSCOBEL       CLEAR     30  26  85 SW3       29.99S
LONE ROCK      NOT AVBL
PLATTEVILLE    CLEAR     34  28  79 SW9       29.99S WCI  27
FORT MC COY    CLEAR     36  27  72 SW5       29.96R WCI  32
VIROQUA        FAIR      35  28  78 W8        29.95F WCI  28
WIS DELLS      NOT AVBL
$$

...ELSEWHERE IN WISCONSIN...


CITY           SKY/WX    TMP DP  RH WIND       PRES   REMARKS
MILWAUKEE      PTCLDY    37  30  75 W3        29.93S
MADISON        CLEAR     36  28  73 VRB6      29.95R WCI  31
GREEN BAY      CLEAR     36  29  75 W12       29.86R WCI  28
EAU CLAIRE     NOT AVBL
BLACK RVR FLS  FAIR      32  26  77 SW3       29.94R
MEDFORD        CLEAR     32  26  77 W7        29.86S WCI  26
WAUSAU         CLEAR     34  27  75 W13       29.85R WCI  25
WIS RAPIDS     CLEAR     32  24  72 W7        29.92S WCI  26
MARSHFIELD     CLEAR     34  26  72 W8        29.89S WCI  27
RICE LAKE      CLEAR     34  26  70 W6        29.92R WCI  29
$$

...NORTHEAST IOWA...


CITY           SKY/WX    TMP DP  RH WIND       PRES   REMARKS
DECORAH        PTCLDY    36  30  80 CALM      29.99S
MASON CITY     CLEAR     36  27  69 W10       30.04R WCI  28
CHARLES CITY   FAIR      34  27  75 W7        30.02S WCI  28
OELWEIN        CLEAR     34  28  80 W8        30.02F WCI  27
$$

...ELSEWHERE IN IOWA...


CITY           SKY/WX    TMP DP  RH WIND       PRES   REMARKS
DES MOINES     PTCLDY    37  24  59 SW6       30.10S WCI  32
IOWA CITY      CLEAR     33  26  75 CALM      30.06F
FORT DODGE     PTCLDY    32  21  64 CALM      30.07S
$$

...NORTHERN ILLINOIS...


CITY           SKY/WX    TMP DP  RH WIND       PRES   REMARKS
CHICAGO-OHARE  FAIR      37  29  72 W10       29.96R WCI  30
CHICAGO-MIDWAY CLEAR     38  30  73 W7        29.97S WCI  33
MOLINE         CLEAR     37  28  70 W7        30.04F WCI  32
ROCKFORD       CLEAR     37  27  67 W8        30.00S WCI  31
PEORIA         CLEAR     42  29  59 W5        30.06S
$$

NOTE: "FAIR" INDICATES FEW OR NO CLOUDS BELOW 12,000 FEET WITH NO
SIGNIFICANT WEATHER AND/OR OBSTRUCTIONS TO VISIBILITY. WIND
SPEEDS ARE IN MILES-PER-HOUR.



USA.gov is the U.S. government's official web portal to all federal, state and local government web resources and services.